COSMOS 2251 DEB, 35023

Orbit data source: Space-Track

COSMOS 2251 DEB, 35023 is space debris in LEO originally from a launch on Wed, 16 Jun 1993 UTC launched from the Plesetsk Missile And Space Complex (PKMTR). The debris from Iridium 33, an American commercial communications satellite, has been tracked extensively since its accidental collision with the defunct Russian satellite Cosmos 2251 in 2009. This event, occurring at high speed in low Earth orbit (LEO), generated thousands of pieces of space debris, significantly increasing the risk of further collisions. The Iridium 33 debris cloud has impacted space traffic management and orbital debris mitigation strategies, making it a subject of ongoing study in space situational awareness.

Loading next visibility...
Identifier
35023, 1993-036AGL
Orbit
LEO
Country
Flag of CISCIS
Related business
Manufacturer
Unknown
Mission
Spacecraft
Bus & Motor
Unknown
Mass
Unknown
Launch date (UTC)
1993-06-16 (33 years ago)
Launch vehicle
Unknown
Launch site
Plesetsk Missile And Space Complex (PKMTR)
Object type
Payload
Rocket body
Debris
Shape & HBR
Unknown shape, 0.1 m
Radar Cross Section
Small (<0.1 m²)

Expand to show TLE details & history
Last TLE update: 19 hours ago

TLE from 19 hours ago
0 COSMOS 2251 DEB
1 35023U 93036AGL 26119.61638594  .00015476  00000-0  12014-2 0  9998
2 35023  74.0344 293.1476 0027708 340.0877 137.5105 15.01043185903442
Epoch: 2026-04-29T14:47Z
TLE epoch observation values (Epoch: 2026-04-29T14:47:35.745Z)
Latitude
58.36121°
Longitude
6.17011°
Altitude
587.398 km
Speed
7.565 km/s
True Right ascension
05h 42m 34s
True Declination
58° 12' 13"
Sunlit
Object was in daylight at epoch
Visualization orbit readout
Latitude
Unknown
Longitude
Unknown
Altitude
Unknown
Speed
Unknown
Apparent Right ascension
Unknown
Apparent Declination
Unknown
Sunlit
N/A
Visualization observer readout
Local Sidereal Time
17:29:09
Azimuth
Unknown
Elevation
Unknown
Doppler factor
Unknown
Orbital elements
Apogee altitude
580.459 km
Perigee altitude
542.003 km
Semi-major axis
6,939.368 km
Eccentricity
0.00277
Inclination
74.0344°
RAAN
293.1476°
Arg. of periapsis
340.0877°
True anomaly
137.72442°
Mean anomaly
137.5105°
Eccentric anomaly
137.61751°
Mean motion
3.7546 °/min
Orbital period
95.88 mins
BSTAR
0.0012014
Loading maneuver chart data...
Computing Atmospheric mass density...

Documentation

Showing up to 5 results
|